Cedar Island, NC

12:40 PM EDT on July 25, 2016 (GMT -0400)
Piney Island

Weather History for KNBT - March, 2013

Change the Weather History Date:

Friday, March 8, 2013

  Actual Average (KMRH) Record (KMRH)
Temperature  
Mean Temperature 46 °F -  
Max Temperature 53 °F 62 °F 76 °F (1974)
Min Temperature 39 °F 41 °F 23 °F (1968)
Degree Days  
Heating Degree Days 19    
Moisture  
Dew Point 30 °F    
Average Humidity 53    
Maximum Humidity 67    
Minimum Humidity 38    
Precipitation  
Precipitation 0.00 in - - ()
Sea Level Pressure  
Sea Level Pressure 30.15 in    
Wind  
Wind Speed 16 mph (NW)    
Max Wind Speed 23 mph    
Max Gust Speed 34 mph    
Averages and records for this station are not official NWS values.
T = Trace of Precipitation, MM = Missing Value Source: NWS Daily Summary

Daily Weather History Graph

Daily Weather History Graph

Search for Another Location

Airport or City:

Trip Planner

Search our weather history database for the weather conditions in past years. The results will help you decide how hot, cold, wet, or windy it might be!

Date:

Astronomy

Mar. 08, 2013 Rise Set
Actual Time 6:25 AM EST 6:07 PM EST
Civil Twilight 6:00 AM EST 6:33 PM EST
Nautical Twilight 5:31 AM EST 7:02 PM EST
Astronomical Twilight 5:01 AM EST 7:31 PM EST
Moon 4:02 AM EST (3/8) 3:06 PM EST (3/8)
Length of Visible Light 12h 32m
Length of Day
11h 42m
Waning Crescent, 12% of the Moon is Illuminated
Mar 8
Waning Crescent
Mar 11
New
Mar 19
First Quarter
Mar 27
Full
Apr 3
Last Quarter

Hourly Weather History & Observations

Time (EST) Temp. Windchill Dew Point Humidity Pressure Visibility Wind Dir Wind Speed Gust Speed Precip Events Conditions
12:56 AM 43.0 °F 36.0 °F 30.0 °F 60% 30.16 in - NW 13.8 mph - N/A   Clear
1:56 AM 43.0 °F 36.0 °F 28.9 °F 58% 30.15 in - NW 13.8 mph - N/A   Clear
2:56 AM 41.0 °F 34.7 °F 28.9 °F 62% 30.14 in - WNW 10.4 mph - N/A   Clear
3:56 AM 41.0 °F 33.9 °F 28.9 °F 62% 30.14 in - NW 12.7 mph - N/A   Clear
4:56 AM 39.9 °F 32.5 °F 28.9 °F 65% 30.15 in - NW 12.7 mph - N/A   Clear
5:56 AM 39.0 °F 31.4 °F 28.9 °F 67% 30.16 in - NW 12.7 mph - N/A   Clear
6:56 AM 41.0 °F 33.5 °F 28.9 °F 62% 30.17 in - NW 13.8 mph 24.2 mph N/A   Clear
7:56 AM 43.0 °F 34.0 °F 30.0 °F 60% 30.19 in - NNW 21.9 mph 29.9 mph N/A   Clear
8:56 AM 45.0 °F 36.9 °F 28.9 °F 53% 30.18 in - NNW 20.7 mph 27.6 mph N/A   Clear
9:56 AM 46.0 °F 38.3 °F 28.0 °F 50% 30.17 in - NW 20.7 mph 33.4 mph N/A   Clear
10:56 AM 46.9 °F - 27.0 °F 46% 30.16 in - NNW 18.4 mph 31.1 mph N/A   Clear
11:56 AM 48.9 °F - 27.0 °F 43% 30.14 in - NNW 20.7 mph 34.5 mph N/A   Clear
12:56 PM 50.0 °F - 28.0 °F 43% 30.10 in - NNW 23.0 mph 29.9 mph N/A   Partly Cloudy
1:56 PM 51.1 °F - 28.0 °F 41% 30.09 in - NNW 21.9 mph 29.9 mph N/A   Clear
2:56 PM 52.0 °F - 28.0 °F 40% 30.09 in - NW 19.6 mph 31.1 mph N/A   Clear
3:56 PM 53.1 °F - 30.0 °F 41% 30.09 in - NNW 23.0 mph 28.8 mph N/A   Clear
4:56 PM 53.1 °F - 28.0 °F 38% 30.11 in - NW 20.7 mph 28.8 mph N/A   Clear
5:56 PM 51.1 °F - 30.9 °F 46% 30.13 in - NW 15.0 mph 23.0 mph N/A   Clear
6:56 PM 48.9 °F - 35.1 °F 59% 30.15 in - NNW 10.4 mph - N/A   Clear
7:56 PM 48.9 °F - 34.0 °F 56% 30.17 in - NNW 12.7 mph - N/A   Clear
8:56 PM 48.9 °F - 34.0 °F 56% 30.19 in - NNW 15.0 mph - N/A   Clear
9:56 PM 48.0 °F - 33.1 °F 56% 30.20 in - North 17.3 mph - N/A   Clear
10:56 PM 46.9 °F - 32.0 °F 56% 30.19 in - NNW 16.1 mph 26.5 mph N/A   Clear
11:56 PM 46.9 °F - 32.0 °F 56% 30.20 in - NNW 18.4 mph 26.5 mph N/A   Clear